SCP
1 0 0 0 0 0 0 0 0 0 0 0 0 0 0 0 0 0 0 0 0 0 0 0 0 0 0 0 0 0 0 0 0 0 0 0 0 0 0 0 0 0 0
1 0 0 0 0 0 0 0 0 0 0 0 0 0 0 0 0 0 0 0 0 0 0 0 0 0 0 0 0 0 0 0 0 0 0 0 0 0 0 0 0 0 0
2 0 0 0 0 0 0 0 1 0 0 0 0 0 0 0 0 0 0 0 0 0 0 0 0 0 0 0 0 0 0 0 0 0 0 0 0 0 0 0 0 0 0
1 1 0 0 0 0 0 0 0 0 0 0 0 0 0 0 0 0 0 0 0 0 0 0 0 0 0 0 0 0 0 0 0 0 0 0 0 0 0 0 0 0 0
0 0 0 0 2 0 0 0 0 0 0 0 0 0 0 0 0 0 0 0 0 0 0 0 0 0 0 0 0 0 0 0 0 0 0 0 0 0 0 0 0 0 0
0 0 0 1 1 0 0 0 0 0 0 0 0 0 0 0 0 0 0 0 0 0 0 0 0 0 0 0 0 0 0 0 0 0 0 0 0 0 0 0 0 0 0
0 0 0 2 1 1 1 1 1 1 0 0 0 0 0 0 0 0 0 0 0 0 0 0 0 0 0 0 0 0 0 0 0 0 0 0 0 0 0 0 0 0 0
1 0 2 2 1 0 1 1 1 0 0 0 0 0 0 0 0 0 0 0 0 0 0 0 0 0 0 0 0 0 0 0 0 0 0 0 0 0 0 0 0 0 0
0 1 1 1 2 2 1 1 1 1 0 0 0 0 0 0 0 0 0 0 0 0 0 0 0 0 0 0 0 0 0 0 0 0 0 0 0 0 0 0 0 0 0
0 0 1 1 2 1 3 1 1 1 1 1 0 0 0 0 0 0 0 0 0 0 0 0 0 0 0 0 0 0 0 0 0 0 0 0 0 0 0 0 0 0 0
1 0 1 2 1 1 2 2 0 0 0 0 0 0 0 0 0 0 0 0 0 0 0 0 0 0 0 0 0 0 0 0 0 0 0 0 0 0 0 0 0 0 0
1 1 1 2 2 2 1 0 0 0 0 0 0 0 0 0 0 0 0 0 0 0 0 0 0 0 0 0 0 0 0 0 0 0 0 0 0 0 0 0 0 0 0
1 3 3 3 1 1 0 0 0 0 0 0 0 0 0 0 0 0 0 0 0 0 0 0 0 0 0 0 0 0 0 0 0 0 0 0 0 0 0 0 0 0 0
2 3 3 2 0 0 0 0 0 0 0 0 0 0 0 0 0 0 0 0 0 0 0 0 0 0 0 0 0 0 0 0 0 0 0 0 0 0 0 0 0 0 0
5 4 2 0 0 0 0 0 0 0 0 0 0 0 0 0 0 0 0 0 0 0 0 0 0 0 0 0 0 0 0 0 0 0 0 0 0 0 0 -0 -0 0 0
5 1 0 0 0 0 0 0 0 0 0 0 0 0 0 0 0 0 0 0 0 0 0 0 0 0 0 0 0 0 0 0 0 0 0 0 0 0 0 0 0 -0 0
0 0 0 0 0 0 0 0 0 0 0 0 0 0 0 0 0 0 0 0 0 0 0 0 0 0 0 0 0 0 0 0 0 0 0 0 0 0 0 0 0 -0 -0
0 0 0 0 0 0 0 0 0 0 0 0 0 0 0 0 0 0 0 0 0 0 0 0 0 0 0 0 0 0 0 0 0 0 0 0 0 0 0 0 0 0 0
0 0 0 0 0 0 0 0 0 0 0 0 0 0 0 0 0 0 0 0 0 0 0 0 0 0 0 0 0 0 0 0 0 0 0 0 0 0 0 0 0 0 0
0 0 0 0 0 0 0 0 0 0 0 0 0 0 0 0 0 0 0 0 0 0 0 0 0 0 0 0 0 0 0 0 0 0 0 0 0 0 0 0 0 0 0
0 0 0 0 0 0 0 0 0 0 0 0 0 0 0 0 0 0 0 0 0 0 0 0 0 0 0 0 0 0 0 0 0 0 0 0 0 0 0 0 0 -0 0
0 0 0 0 0 0 0 0 0 0 0 0 0 0 0 0 0 0 0 0 0 0 0 0 0 0 0 0 0 0 0 0 0 0 0 0 0 0 0 0 0 0 0
0 0 0 0 0 0 0 0 0 0 0 0 0 0 0 0 0 0 0 -0 0 0 0 0 0 0 0 0 0 0 0 0 0 0 0 0 0 0 0 0 0 0 0
0 0 0 0 0 0 0 0 0 0 0 0 -0 0 0 0 0 0 -0 0 0 0 0 0 0 0 0 0 0 0 0 0 0 0 0 0 0 0 0 0 0 0 0
0 0 0 0 0 0 0 0 0 0 0 -0 -0 0 0 0 0 0 0 0 0 0 0 0 0 0 0 0 0 0 0 0 0 0 0 0 0 0 0 0 0 0 -0
0 0 0 0 0 0 0 0 0 0 0 -0 0 0 0 0 -0 0 0 0 0 0 0 0 0 0 0 0 0 0 0 0 0 0 0 0 0 0 0 0 0 0 0
Wind_Speed_500mb
37 34 30 26 21 20 18 15 14 14 12 16 13 15 16 18 17 14 24 39 38 42 38 37 38 38 40 42 46 46 44 45 48 48 48 46 48 50 51 53 45 34 37
44 36 31 27 24 21 17 16 15 14 13 14 15 16 16 19 15 16 13 34 40 38 38 35 36 37 44 47 49 44 40 39 44 47 46 47 47 51 55 51 44 36 33
49 37 30 29 25 23 23 19 17 15 13 16 19 16 17 16 16 17 17 15 32 38 32 37 37 42 48 51 46 42 36 42 37 41 44 47 45 49 51 52 43 43 37
49 47 35 33 28 26 19 19 15 14 15 16 17 19 17 19 19 18 16 15 14 18 32 32 46 48 48 49 51 43 34 33 36 38 41 45 49 49 46 43 46 44 40
52 52 40 35 38 22 22 20 17 17 15 18 18 20 17 15 16 15 21 15 16 14 17 27 41 46 45 54 58 54 43 41 41 42 43 45 45 45 42 41 42 41 40
48 50 38 36 38 26 23 19 18 15 15 16 18 22 23 15 14 13 13 13 16 19 21 28 29 28 43 48 57 52 50 53 38 41 42 41 45 46 44 45 43 42 46
48 54 38 41 36 27 24 26 20 17 12 13 14 20 22 28 20 11 12 12 15 22 25 27 31 30 25 33 37 51 55 37 45 40 37 40 42 43 42 44 45 45 44
58 55 43 35 36 25 27 25 21 14 11 13 10 17 20 14 13 17 10 15 16 23 23 27 31 34 31 30 35 39 43 55 54 42 41 43 43 43 44 44 44 43 42
54 53 47 32 36 32 22 22 18 18 14 8 16 7 13 16 27 10 20 12 15 24 23 25 33 33 30 32 33 37 47 57 56 45 48 48 45 43 43 44 44 44 44
51 53 47 36 39 30 29 20 23 13 17 12 4 6 9 14 11 16 19 26 25 29 30 32 32 28 31 31 36 39 53 58 55 47 48 49 47 46 44 45 48 45 46
55 46 41 41 34 31 34 31 20 17 7 8 6 6 10 11 10 18 31 25 29 29 30 28 25 28 30 33 35 37 60 62 51 47 48 48 49 52 53 52 49 49 48
51 50 45 42 38 43 33 31 21 19 15 12 4 3 1 5 12 18 26 30 34 32 30 23 25 28 30 32 37 52 65 55 60 55 50 52 57 58 57 55 52 49 47
51 53 53 51 50 47 33 26 25 20 16 10 13 4 6 7 10 16 21 27 32 32 26 23 26 29 28 35 38 54 55 53 61 61 59 59 64 65 57 53 52 49 46
56 57 56 51 50 43 35 29 23 18 14 10 10 5 8 10 13 15 18 25 33 30 24 21 28 30 36 37 40 53 48 53 59 56 63 71 71 63 62 59 53 47 43
59 58 56 56 46 40 34 30 25 17 10 8 5 2 4 12 13 16 17 19 21 30 33 23 35 38 35 41 46 54 55 53 53 56 61 70 62 60 55 47 47 42 34
63 60 59 53 49 44 39 31 27 21 15 9 4 7 7 13 14 15 16 18 19 24 33 33 38 40 47 44 46 52 51 52 47 50 60 65 57 61 50 44 44 40 36
62 68 59 53 49 45 39 29 24 23 18 9 8 12 15 10 12 13 14 16 18 23 30 36 36 40 46 51 44 51 47 48 47 47 54 50 60 62 47 43 45 42 38
69 63 58 54 52 46 39 32 29 22 17 12 13 11 10 12 11 16 15 22 20 23 28 38 41 41 43 45 52 50 50 44 46 49 42 50 53 52 46 46 49 48 48
69 61 58 56 52 42 34 32 24 20 18 15 13 4 7 8 13 14 16 18 20 24 27 32 41 37 40 43 47 45 58 52 48 54 48 56 47 34 46 48 45 46 47
59 58 57 53 45 39 38 32 25 16 20 11 9 5 9 10 15 19 18 24 30 30 27 30 35 38 40 45 43 50 63 63 65 58 54 64 44 38 41 41 45 30 48
67 65 65 61 55 46 37 28 23 17 17 14 10 12 12 15 19 19 26 29 32 33 31 33 33 38 42 52 51 56 57 70 74 51 75 64 51 52 48 47 39 51 49
73 71 66 65 60 50 43 35 28 20 17 16 11 15 12 16 18 20 21 29 36 41 38 39 36 43 44 49 55 59 64 72 75 69 73 72 45 64 67 53 32 31 48
68 65 64 59 57 49 40 27 18 18 19 15 12 10 11 14 19 20 26 29 33 38 40 40 35 40 49 51 58 61 62 67 72 70 63 72 43 68 72 36 41 51 52
73 72 63 56 48 44 38 30 28 26 23 18 15 14 14 18 22 26 32 26 23 21 26 38 38 40 48 54 57 57 61 69 72 65 44 60 69 79 61 42 43 49 43
83 76 67 57 51 51 46 43 33 28 23 22 19 18 19 21 28 31 34 33 30 29 25 39 41 48 54 56 63 60 61 66 74 70 51 70 73 85 67 39 69 52 39
80 72 61 52 52 51 45 46 31 23 22 18 17 21 23 28 32 36 41 42 37 41 49 39 36 40 48 51 62 57 53 57 61 65 61 67 71 73 56 65 75 62 48
Wind_Direction_500mb
201 194 195 192 207 202 220 214 224 244 253 269 266 282 300 309 306 310 298 302 304 310 314 311 311 317 322 321 321 321 316 308 316 317 322 326 330 331 333 336 339 330 327
200 197 193 189 199 201 211 225 237 246 263 256 275 288 304 310 298 288 288 306 307 310 316 318 315 316 318 319 319 320 318 304 308 312 319 322 327 327 326 330 336 327 324
211 190 190 189 197 202 205 217 230 240 252 272 279 299 313 302 310 290 298 295 303 311 320 320 317 315 317 320 324 323 321 314 316 312 317 320 320 317 317 318 324 326 312
211 183 187 191 198 198 203 211 217 231 245 260 278 293 293 300 295 306 306 279 276 295 315 315 310 314 320 321 324 316 312 303 300 300 303 303 306 309 311 313 316 318 314
204 190 188 189 202 195 203 209 218 225 245 271 280 287 296 303 294 299 277 299 308 313 299 309 309 327 324 321 319 320 313 307 307 308 308 311 313 308 307 309 309 311 309
198 190 187 195 207 193 203 204 214 233 231 260 276 280 283 283 292 285 292 312 301 314 321 311 319 325 320 320 326 324 325 319 323 321 319 310 307 308 304 301 299 299 298
195 190 192 196 196 197 200 216 225 239 249 273 294 291 274 271 279 273 276 286 298 312 306 319 325 311 313 312 318 316 320 321 328 331 320 307 311 309 315 312 309 309 306
196 195 185 195 195 197 196 212 207 215 246 276 287 288 293 254 260 300 264 294 300 310 311 304 310 315 315 321 315 330 310 312 326 328 328 324 324 326 318 314 309 311 309
199 195 185 193 206 190 209 209 221 216 241 242 290 288 308 310 319 285 302 299 279 326 319 314 316 313 319 317 326 323 307 322 328 327 324 328 327 325 316 311 310 310 306
194 191 186 188 201 187 206 208 211 204 216 252 253 289 290 301 318 311 306 314 330 330 318 315 319 319 320 324 324 321 309 321 327 328 325 325 321 319 315 313 310 311 308
193 184 183 193 189 181 198 198 205 182 207 195 239 271 291 295 316 318 314 315 315 318 316 313 314 327 323 324 324 316 308 326 326 335 330 328 320 316 312 312 312 307 303
182 178 186 188 185 193 203 198 205 203 193 176 163 98 321 326 327 321 315 320 319 322 318 316 328 330 323 323 327 307 315 335 329 333 327 324 320 316 314 312 311 309 306
178 185 184 187 188 197 199 196 198 196 202 200 164 74 51 20 2 332 327 324 325 328 327 324 329 331 328 324 324 315 330 326 325 327 324 324 325 323 323 324 319 314 311
182 189 184 188 194 194 194 189 187 199 194 205 192 191 55 18 360 357 348 335 335 331 331 337 336 331 334 330 329 325 328 330 317 326 334 330 334 332 329 328 326 319 313
180 189 179 191 183 183 180 179 176 179 166 152 186 145 36 1 359 4 354 343 339 324 332 326 333 331 332 332 335 331 329 324 337 334 327 329 333 334 331 337 341 340 335
182 179 178 180 170 168 175 174 163 154 139 113 46 11 338 11 1 6 350 348 332 327 318 329 328 331 330 337 335 332 333 337 333 329 325 331 334 338 336 336 338 342 343
181 175 179 171 173 173 172 178 166 151 130 112 49 22 5 355 14 11 3 337 342 329 323 324 332 334 342 332 331 336 339 339 332 332 322 329 334 337 342 345 346 343 341
172 179 169 170 164 168 167 164 152 134 126 103 53 349 355 6 30 3 7 343 336 340 333 329 333 344 337 338 328 338 333 343 339 329 349 333 324 327 334 332 328 332 332
180 177 174 167 165 156 152 142 136 135 108 63 41 16 23 20 19 17 19 357 349 352 348 339 335 339 338 330 336 332 341 342 341 340 334 332 328 330 324 319 323 323 316
179 172 166 165 160 155 151 137 125 118 80 91 113 54 44 35 31 28 25 16 11 13 359 347 340 337 333 328 336 339 341 346 345 349 337 342 343 323 309 314 326 314 314
168 167 163 160 159 152 140 137 129 102 108 138 111 66 42 34 34 27 28 21 18 14 5 353 343 340 336 338 339 340 338 341 346 346 337 343 345 352 339 325 299 307 313
166 164 160 152 142 131 123 111 101 109 125 105 99 72 15 31 18 20 20 27 19 13 5 358 346 337 335 337 342 342 342 342 340 350 341 350 349 342 348 344 328 319 323
158 147 140 141 137 131 128 118 132 136 137 124 123 107 59 23 24 25 35 17 7 1 357 359 338 342 343 339 339 344 346 344 339 348 343 341 347 345 350 352 358 342 331
152 148 140 137 140 128 122 129 145 141 140 126 104 87 57 35 35 33 38 22 22 4 354 356 354 342 341 347 346 342 344 340 342 350 350 339 355 352 1 7 342 338 347
146 144 141 141 136 134 137 143 131 129 119 107 89 71 59 46 38 34 37 30 18 356 7 359 353 347 345 345 348 350 347 349 345 352 358 347 353 349 1 6 356 2 358
140 137 136 140 135 131 139 124 118 121 111 93 69 63 53 48 37 35 37 28 21 22 25 2 1 355 353 343 347 353 353 352 350 345 354 347 350 353 341 351 359 2 0
Wind_Speed_850mb
37 34 30 26 21 20 18 15 14 14 12 16 13 15 16 18 17 14 24 39 38 42 38 37 38 38 40 42 46 46 44 45 48 48 48 46 48 50 51 53 45 34 37
44 36 31 27 24 21 17 16 15 14 13 14 15 16 16 19 15 16 13 34 40 38 38 35 36 37 44 47 49 44 40 39 44 47 46 47 47 51 55 51 44 36 33
49 37 30 29 25 23 23 19 17 15 13 16 19 16 17 16 16 17 17 15 32 38 32 37 37 42 48 51 46 42 36 42 37 41 44 47 45 49 51 52 43 43 37
49 47 35 33 28 26 19 19 15 14 15 16 17 19 17 19 19 18 16 15 14 18 32 32 46 48 48 49 51 43 34 33 36 38 41 45 49 49 46 43 46 44 40
52 52 40 35 38 22 22 20 17 17 15 18 18 20 17 15 16 15 21 15 16 14 17 27 41 46 45 54 58 54 43 41 41 42 43 45 45 45 42 41 42 41 40
48 50 38 36 38 26 23 19 18 15 15 16 18 22 23 15 14 13 13 13 16 19 21 28 29 28 43 48 57 52 50 53 38 41 42 41 45 46 44 45 43 42 46
48 54 38 41 36 27 24 26 20 17 12 13 14 20 22 28 20 11 12 12 15 22 25 27 31 30 25 33 37 51 55 37 45 40 37 40 42 43 42 44 45 45 44
58 55 43 35 36 25 27 25 21 14 11 13 10 17 20 14 13 17 10 15 16 23 23 27 31 34 31 30 35 39 43 55 54 42 41 43 43 43 44 44 44 43 42
54 53 47 32 36 32 22 22 18 18 14 8 16 7 13 16 27 10 20 12 15 24 23 25 33 33 30 32 33 37 47 57 56 45 48 48 45 43 43 44 44 44 44
51 53 47 36 39 30 29 20 23 13 17 12 4 6 9 14 11 16 19 26 25 29 30 32 32 28 31 31 36 39 53 58 55 47 48 49 47 46 44 45 48 45 46
55 46 41 41 34 31 34 31 20 17 7 8 6 6 10 11 10 18 31 25 29 29 30 28 25 28 30 33 35 37 60 62 51 47 48 48 49 52 53 52 49 49 48
51 50 45 42 38 43 33 31 21 19 15 12 4 3 1 5 12 18 26 30 34 32 30 23 25 28 30 32 37 52 65 55 60 55 50 52 57 58 57 55 52 49 47
51 53 53 51 50 47 33 26 25 20 16 10 13 4 6 7 10 16 21 27 32 32 26 23 26 29 28 35 38 54 55 53 61 61 59 59 64 65 57 53 52 49 46
56 57 56 51 50 43 35 29 23 18 14 10 10 5 8 10 13 15 18 25 33 30 24 21 28 30 36 37 40 53 48 53 59 56 63 71 71 63 62 59 53 47 43
59 58 56 56 46 40 34 30 25 17 10 8 5 2 4 12 13 16 17 19 21 30 33 23 35 38 35 41 46 54 55 53 53 56 61 70 62 60 55 47 47 42 34
63 60 59 53 49 44 39 31 27 21 15 9 4 7 7 13 14 15 16 18 19 24 33 33 38 40 47 44 46 52 51 52 47 50 60 65 57 61 50 44 44 40 36
62 68 59 53 49 45 39 29 24 23 18 9 8 12 15 10 12 13 14 16 18 23 30 36 36 40 46 51 44 51 47 48 47 47 54 50 60 62 47 43 45 42 38
69 63 58 54 52 46 39 32 29 22 17 12 13 11 10 12 11 16 15 22 20 23 28 38 41 41 43 45 52 50 50 44 46 49 42 50 53 52 46 46 49 48 48
69 61 58 56 52 42 34 32 24 20 18 15 13 4 7 8 13 14 16 18 20 24 27 32 41 37 40 43 47 45 58 52 48 54 48 56 47 34 46 48 45 46 47
59 58 57 53 45 39 38 32 25 16 20 11 9 5 9 10 15 19 18 24 30 30 27 30 35 38 40 45 43 50 63 63 65 58 54 64 44 38 41 41 45 30 48
67 65 65 61 55 46 37 28 23 17 17 14 10 12 12 15 19 19 26 29 32 33 31 33 33 38 42 52 51 56 57 70 74 51 75 64 51 52 48 47 39 51 49
73 71 66 65 60 50 43 35 28 20 17 16 11 15 12 16 18 20 21 29 36 41 38 39 36 43 44 49 55 59 64 72 75 69 73 72 45 64 67 53 32 31 48
68 65 64 59 57 49 40 27 18 18 19 15 12 10 11 14 19 20 26 29 33 38 40 40 35 40 49 51 58 61 62 67 72 70 63 72 43 68 72 36 41 51 52
73 72 63 56 48 44 38 30 28 26 23 18 15 14 14 18 22 26 32 26 23 21 26 38 38 40 48 54 57 57 61 69 72 65 44 60 69 79 61 42 43 49 43
83 76 67 57 51 51 46 43 33 28 23 22 19 18 19 21 28 31 34 33 30 29 25 39 41 48 54 56 63 60 61 66 74 70 51 70 73 85 67 39 69 52 39
80 72 61 52 52 51 45 46 31 23 22 18 17 21 23 28 32 36 41 42 37 41 49 39 36 40 48 51 62 57 53 57 61 65 61 67 71 73 56 65 75 62 48
Wind_Direction_850mb
201 194 195 192 207 202 220 214 224 244 253 269 266 282 300 309 306 310 298 302 304 310 314 311 311 317 322 321 321 321 316 308 316 317 322 326 330 331 333 336 339 330 327
200 197 193 189 199 201 211 225 237 246 263 256 275 288 304 310 298 288 288 306 307 310 316 318 315 316 318 319 319 320 318 304 308 312 319 322 327 327 326 330 336 327 324
211 190 190 189 197 202 205 217 230 240 252 272 279 299 313 302 310 290 298 295 303 311 320 320 317 315 317 320 324 323 321 314 316 312 317 320 320 317 317 318 324 326 312
211 183 187 191 198 198 203 211 217 231 245 260 278 293 293 300 295 306 306 279 276 295 315 315 310 314 320 321 324 316 312 303 300 300 303 303 306 309 311 313 316 318 314
204 190 188 189 202 195 203 209 218 225 245 271 280 287 296 303 294 299 277 299 308 313 299 309 309 327 324 321 319 320 313 307 307 308 308 311 313 308 307 309 309 311 309
198 190 187 195 207 193 203 204 214 233 231 260 276 280 283 283 292 285 292 312 301 314 321 311 319 325 320 320 326 324 325 319 323 321 319 310 307 308 304 301 299 299 298
195 190 192 196 196 197 200 216 225 239 249 273 294 291 274 271 279 273 276 286 298 312 306 319 325 311 313 312 318 316 320 321 328 331 320 307 311 309 315 312 309 309 306
196 195 185 195 195 197 196 212 207 215 246 276 287 288 293 254 260 300 264 294 300 310 311 304 310 315 315 321 315 330 310 312 326 328 328 324 324 326 318 314 309 311 309
199 195 185 193 206 190 209 209 221 216 241 242 290 288 308 310 319 285 302 299 279 326 319 314 316 313 319 317 326 323 307 322 328 327 324 328 327 325 316 311 310 310 306
194 191 186 188 201 187 206 208 211 204 216 252 253 289 290 301 318 311 306 314 330 330 318 315 319 319 320 324 324 321 309 321 327 328 325 325 321 319 315 313 310 311 308
193 184 183 193 189 181 198 198 205 182 207 195 239 271 291 295 316 318 314 315 315 318 316 313 314 327 323 324 324 316 308 326 326 335 330 328 320 316 312 312 312 307 303
182 178 186 188 185 193 203 198 205 203 193 176 163 98 321 326 327 321 315 320 319 322 318 316 328 330 323 323 327 307 315 335 329 333 327 324 320 316 314 312 311 309 306
178 185 184 187 188 197 199 196 198 196 202 200 164 74 51 20 2 332 327 324 325 328 327 324 329 331 328 324 324 315 330 326 325 327 324 324 325 323 323 324 319 314 311
182 189 184 188 194 194 194 189 187 199 194 205 192 191 55 18 360 357 348 335 335 331 331 337 336 331 334 330 329 325 328 330 317 326 334 330 334 332 329 328 326 319 313
180 189 179 191 183 183 180 179 176 179 166 152 186 145 36 1 359 4 354 343 339 324 332 326 333 331 332 332 335 331 329 324 337 334 327 329 333 334 331 337 341 340 335
182 179 178 180 170 168 175 174 163 154 139 113 46 11 338 11 1 6 350 348 332 327 318 329 328 331 330 337 335 332 333 337 333 329 325 331 334 338 336 336 338 342 343
181 175 179 171 173 173 172 178 166 151 130 112 49 22 5 355 14 11 3 337 342 329 323 324 332 334 342 332 331 336 339 339 332 332 322 329 334 337 342 345 346 343 341
172 179 169 170 164 168 167 164 152 134 126 103 53 349 355 6 30 3 7 343 336 340 333 329 333 344 337 338 328 338 333 343 339 329 349 333 324 327 334 332 328 332 332
180 177 174 167 165 156 152 142 136 135 108 63 41 16 23 20 19 17 19 357 349 352 348 339 335 339 338 330 336 332 341 342 341 340 334 332 328 330 324 319 323 323 316
179 172 166 165 160 155 151 137 125 118 80 91 113 54 44 35 31 28 25 16 11 13 359 347 340 337 333 328 336 339 341 346 345 349 337 342 343 323 309 314 326 314 314
168 167 163 160 159 152 140 137 129 102 108 138 111 66 42 34 34 27 28 21 18 14 5 353 343 340 336 338 339 340 338 341 346 346 337 343 345 352 339 325 299 307 313
166 164 160 152 142 131 123 111 101 109 125 105 99 72 15 31 18 20 20 27 19 13 5 358 346 337 335 337 342 342 342 342 340 350 341 350 349 342 348 344 328 319 323
158 147 140 141 137 131 128 118 132 136 137 124 123 107 59 23 24 25 35 17 7 1 357 359 338 342 343 339 339 344 346 344 339 348 343 341 347 345 350 352 358 342 331
152 148 140 137 140 128 122 129 145 141 140 126 104 87 57 35 35 33 38 22 22 4 354 356 354 342 341 347 346 342 344 340 342 350 350 339 355 352 1 7 342 338 347
146 144 141 141 136 134 137 143 131 129 119 107 89 71 59 46 38 34 37 30 18 356 7 359 353 347 345 345 348 350 347 349 345 352 358 347 353 349 1 6 356 2 358
140 137 136 140 135 131 139 124 118 121 111 93 69 63 53 48 37 35 37 28 21 22 25 2 1 355 353 343 347 353 353 352 350 345 354 347 350 353 341 351 359 2 0